Vertical_Velocity
-4 -1 -0 1 0 -1 -0 -1 -2 0 -0 1 0 -0 1 -1 0 3 1 0 0 -1 0 -2 -2 0 -2 -0 -3 -1 -1 -1 0 1 -1 -1 -0 -0 -1 -0 -1 -1 -0
0 -1 -0 0 -0 -1 0 -1 -1 -2 0 1 0 -0 -0 -1 -1 2 1 -1 -0 -2 0 -2 -0 1 -1 0 -2 -1 -0 -2 -0 0 -0 -0 -1 -0 -0 0 -1 -1 -1
-1 -1 1 1 0 -0 -1 -3 -1 -1 -1 1 -1 0 2 -1 -0 0 -0 0 0 0 -1 -1 -0 -2 1 -1 0 -2 -2 0 -1 -1 -0 -1 -1 -1 -2 -1 -1 -1 -1
2 -2 2 2 1 -1 1 -2 -3 -1 -1 0 -1 -1 1 -0 -1 -1 0 -0 -0 -2 -1 -1 -3 -1 1 -1 -0 -0 0 -0 0 -1 -0 -2 -2 -2 -1 -1 -1 -2 -2
1 -0 1 2 3 -1 3 -1 -2 -2 -1 -3 2 -1 0 -1 -1 -1 -1 -0 -1 -1 0 -1 -2 -1 -0 -1 -2 -2 -1 0 -1 -1 -0 -1 -1 -0 -1 -2 -1 -1 -1
1 0 1 4 3 1 2 2 -4 -3 -2 -2 0 0 -0 -1 -1 -1 -2 -1 -1 0 -1 -1 -0 -0 -2 -1 -2 -2 -3 -1 -1 -1 1 -1 -1 -1 -1 -2 -1 -2 -1
3 -1 2 3 3 1 0 4 -0 -2 -5 -1 -0 -1 0 -1 1 -1 -1 -0 -1 -0 -1 -2 -2 0 -2 -3 -2 -2 0 -1 -1 -1 0 -1 -1 -0 0 -1 -0 -2 -1
7 2 4 4 2 -2 3 -0 3 2 -4 -3 -1 -3 -1 -0 -0 -1 -1 -1 -2 -2 -3 -2 -3 -2 -2 -2 -1 -2 -2 1 -0 -2 -0 -1 -1 -1 -1 -1 -1 -1 -2
1 4 5 5 6 1 -1 1 3 0 2 -3 -1 -4 -3 -2 -1 -3 -2 -2 -2 -2 -2 -1 -2 -1 -1 -2 -1 -0 -1 2 1 -1 -0 -1 -1 -1 -2 -1 -1 -1 -1
1 8 9 6 5 5 1 1 2 1 0 1 -2 -3 -4 -2 -1 -2 -2 -1 -1 -2 -1 -1 0 -0 -0 -1 -2 -1 0 -1 1 -1 -1 -1 -1 -1 -2 0 -1 -1 -1
-4 9 5 7 5 3 3 2 2 0 2 2 0 -2 -3 -2 -2 -0 -1 -0 -1 -0 -0 -0 -1 -1 0 -2 -1 -0 -0 0 1 -0 1 -0 0 -1 -2 -1 -1 -2 -2
1 -0 5 6 4 4 2 1 -0 2 1 2 2 -1 -0 -1 -1 -1 -1 1 2 1 1 1 0 1 1 0 -0 0 -0 -0 1 0 1 -0 0 0 -2 -0 -0 -2 -1
-4 7 10 8 4 3 4 5 -1 0 2 1 0 4 -0 -0 1 1 0 1 1 1 1 1 1 0 -1 -0 -0 -1 1 -0 0 1 -0 -1 1 0 0 -1 -2 -2 -2
-47 -6 9 9 9 6 3 4 4 -0 2 1 1 0 5 1 -1 0 1 1 1 2 1 1 1 2 0 1 0 -1 0 -0 0 -0 -0 0 1 0 0 1 1 -1 -1
-9 -78 9 8 10 11 7 2 1 1 3 -0 4 -1 1 3 3 2 1 1 1 -0 0 -0 -0 1 3 2 2 1 -1 -1 -2 -1 0 1 -0 -1 -1 -2 -2 1 0
-5 -11 -29 -22 -1 -1 8 7 3 1 -1 5 1 2 -0 1 -0 3 0 -0 -1 1 -1 -0 0 -2 -1 0 -0 -0 -1 -1 -0 -0 1 1 0 -0 0 0 -1 -2 -1
8 -3 2 22 -34 2 5 10 5 3 1 2 4 -0 1 1 1 -3 1 2 0 0 2 0 -1 -1 -2 -4 -2 -1 0 0 0 -1 -0 2 3 0 0 2 2 -2 -3
-3 13 16 13 -0 -33 14 2 13 1 4 2 6 4 -1 -3 1 0 0 2 -1 -2 -0 -0 -1 0 -0 -1 -1 -3 -2 -3 1 1 -0 -1 -1 0 1 -3 -1 -1 -2
-6 3 -9 -5 9 0 -27 -50 1 2 -3 -0 -1 1 0 -1 -1 -0 -0 0 1 -0 -1 -0 -1 -1 0 1 -0 1 1 1 -1 -0 -2 -1 -2 -2 0 -1 -4 -2 0
6 2 9 -1 1 7 9 5 2 -3 2 -0 1 1 1 2 -1 -1 -2 0 0 0 1 -0 -1 -0 -1 0 -0 -1 1 -0 0 2 0 -1 -0 -0 2 0 0 -4 -1
4 12 2 -1 -6 -4 -1 1 9 -2 2 -3 2 3 0 3 2 -2 2 -3 -1 1 0 1 -1 -0 0 -2 -3 0 -1 6 0 1 2 -1 -0 -0 -1 -2 -2 1 0
-0 12 6 1 3 7 5 -2 -2 10 3 -2 -0 -4 2 2 1 -0 -0 4 -3 -3 -1 -2 -1 -3 -1 1 -2 -4 -10 5 7 2 3 3 -1 -0 -2 1 0 -0 -1
0 -4 1 7 6 0 -0 4 2 -2 -0 -4 3 -2 -5 5 3 -2 0 -1 -0 -1 -1 -1 -2 -2 -3 -0 3 -0 -9 -7 -3 2 2 -1 0 -1 -1 -1 -0 1 3
6 1 -3 -2 2 7 9 -1 -2 21 7 1 8 8 7 7 4 4 1 1 -3 -2 -1 -2 -1 0 -4 -1 -3 3 2 -1 -5 -10 4 0 3 -0 -2 -3 -1 1 -1
-0 -1 -1 10 2 -2 -8 13 -8 8 20 22 3 3 -10 7 5 3 7 15 8 8 0 0 -2 0 -0 0 -1 -2 0 1 3 -0 -5 3 -1 -0 -1 -0 -0 1 1
0 -3 -4 -1 4 5 -4 -3 -4 -16 -9 -7 14 10 15 -3 -13 -13 -4 2 -6 -3 -2 -4 -1 -1 2 2 -0 3 -0 -2 4 1 -2 1 0 2 -0 -0 -2 -2 -1
Height
3166 3166 3168 3170 3171 3172 3173 3173 3173 3174 3174 3174 3175 3175 3176 3177 3180 3180 3181 3182 3183 3184 3184 3184 3183 3184 3184 3184 3184 3183 3183 3182 3182 3181 3180 3180 3179 3178 3177 3176 3175 3174 3173
3166 3166 3168 3169 3171 3172 3173 3174 3174 3174 3175 3176 3176 3177 3178 3179 3181 3182 3183 3184 3185 3185 3186 3185 3185 3185 3186 3186 3186 3185 3184 3184 3183 3182 3182 3181 3180 3179 3178 3177 3176 3175 3174
3165 3167 3168 3169 3171 3172 3173 3175 3175 3176 3176 3177 3178 3178 3180 3181 3182 3183 3184 3185 3186 3187 3187 3187 3187 3187 3188 3187 3187 3186 3186 3185 3185 3184 3183 3183 3182 3181 3180 3179 3178 3176 3175
3165 3166 3168 3170 3171 3172 3173 3175 3177 3177 3178 3179 3180 3181 3182 3183 3184 3185 3186 3186 3187 3188 3189 3189 3189 3189 3190 3190 3189 3188 3188 3187 3187 3186 3185 3185 3184 3183 3182 3180 3179 3178 3176
3165 3166 3168 3170 3171 3173 3174 3176 3177 3178 3179 3181 3182 3183 3184 3184 3185 3187 3188 3188 3189 3190 3190 3190 3190 3191 3192 3191 3191 3190 3190 3190 3189 3188 3188 3187 3185 3184 3183 3182 3181 3179 3177
3164 3166 3168 3170 3171 3173 3175 3176 3177 3179 3180 3183 3184 3185 3186 3187 3188 3189 3189 3190 3191 3192 3191 3191 3192 3193 3193 3193 3193 3192 3192 3191 3191 3190 3189 3188 3187 3186 3184 3183 3182 3180 3179
3164 3166 3169 3170 3172 3174 3175 3177 3178 3180 3181 3184 3185 3187 3188 3188 3190 3190 3192 3192 3193 3193 3194 3194 3194 3195 3195 3195 3195 3195 3194 3193 3193 3192 3191 3189 3188 3187 3185 3184 3182 3181 3180
3166 3167 3170 3171 3172 3174 3176 3178 3179 3181 3182 3184 3186 3188 3189 3190 3191 3192 3193 3194 3195 3196 3196 3196 3197 3197 3197 3197 3197 3196 3196 3195 3194 3193 3192 3190 3188 3187 3185 3184 3182 3181 3180
3165 3168 3170 3172 3173 3175 3177 3179 3181 3182 3183 3185 3187 3189 3191 3192 3193 3194 3195 3195 3196 3197 3198 3198 3198 3199 3198 3198 3197 3197 3196 3196 3194 3193 3191 3190 3188 3187 3185 3183 3182 3180 3179
3164 3169 3172 3173 3174 3176 3178 3180 3182 3184 3185 3186 3187 3189 3191 3193 3194 3195 3196 3197 3198 3198 3199 3199 3199 3199 3199 3198 3197 3197 3196 3195 3194 3192 3191 3189 3188 3186 3184 3182 3181 3179 3178
3164 3168 3171 3174 3175 3176 3179 3181 3183 3185 3186 3187 3188 3190 3191 3193 3194 3196 3197 3197 3198 3199 3199 3199 3199 3199 3198 3198 3196 3196 3195 3194 3193 3192 3190 3188 3187 3185 3183 3182 3180 3179 3177
3164 3167 3169 3172 3175 3176 3178 3181 3183 3185 3187 3188 3189 3190 3192 3194 3195 3196 3197 3197 3198 3198 3198 3198 3198 3198 3197 3196 3195 3195 3193 3192 3192 3190 3188 3187 3185 3184 3182 3180 3179 3177 3176
3159 3163 3167 3170 3173 3176 3177 3180 3182 3185 3186 3188 3189 3191 3192 3194 3195 3196 3196 3197 3197 3197 3197 3197 3196 3196 3195 3194 3193 3192 3191 3190 3189 3188 3187 3185 3183 3182 3180 3178 3176 3175 3173
3151 3161 3166 3169 3172 3174 3176 3178 3181 3183 3185 3187 3188 3189 3191 3193 3194 3195 3196 3196 3196 3196 3196 3195 3194 3194 3192 3192 3190 3190 3189 3188 3186 3185 3184 3183 3181 3179 3177 3176 3174 3172 3170
3144 3151 3162 3166 3171 3174 3175 3177 3179 3181 3183 3185 3186 3188 3190 3191 3193 3194 3194 3195 3195 3194 3194 3193 3192 3191 3191 3190 3189 3188 3186 3185 3184 3183 3181 3180 3178 3176 3174 3172 3170 3168 3166
3149 3153 3159 3162 3166 3172 3175 3176 3178 3180 3182 3183 3184 3186 3187 3189 3190 3191 3191 3192 3192 3192 3191 3191 3190 3189 3188 3187 3186 3185 3183 3182 3181 3180 3178 3177 3174 3172 3170 3167 3165 3164 3162
3148 3151 3155 3157 3159 3168 3171 3174 3175 3177 3179 3180 3182 3182 3184 3186 3187 3187 3188 3188 3189 3189 3189 3188 3187 3186 3185 3184 3183 3181 3180 3178 3177 3176 3174 3173 3171 3168 3166 3164 3161 3159 3157
3146 3148 3151 3152 3156 3162 3164 3169 3171 3172 3174 3175 3177 3179 3180 3181 3182 3183 3184 3184 3185 3185 3185 3184 3183 3182 3181 3180 3179 3178 3176 3175 3173 3172 3170 3168 3166 3164 3162 3159 3157 3154 3153
3142 3145 3149 3152 3156 3157 3156 3160 3164 3167 3168 3170 3172 3173 3175 3176 3177 3179 3180 3180 3181 3181 3181 3180 3179 3178 3177 3176 3175 3174 3172 3170 3168 3167 3165 3163 3160 3158 3157 3154 3152 3150 3148
3139 3142 3144 3147 3152 3150 3153 3157 3159 3160 3162 3164 3166 3168 3169 3171 3171 3173 3175 3176 3176 3176 3176 3176 3175 3174 3173 3171 3169 3168 3167 3165 3163 3162 3160 3157 3155 3152 3151 3150 3147 3145 3143
3135 3138 3141 3142 3145 3148 3151 3153 3154 3156 3158 3158 3160 3162 3164 3165 3167 3168 3170 3172 3172 3172 3171 3170 3170 3169 3168 3165 3162 3162 3161 3160 3158 3156 3154 3151 3149 3146 3144 3142 3141 3139 3138
3133 3135 3136 3141 3141 3143 3146 3149 3150 3150 3152 3153 3155 3157 3159 3160 3162 3165 3166 3167 3167 3167 3167 3166 3165 3163 3162 3160 3157 3154 3152 3154 3151 3150 3148 3145 3143 3141 3138 3135 3134 3132 3131
3128 3131 3133 3135 3138 3139 3141 3143 3144 3146 3148 3149 3151 3153 3156 3156 3157 3160 3161 3162 3162 3162 3162 3161 3160 3158 3156 3156 3153 3149 3144 3143 3143 3141 3139 3137 3135 3134 3131 3129 3128 3126 3125
3124 3126 3127 3130 3132 3135 3136 3139 3141 3142 3142 3145 3146 3149 3151 3153 3153 3154 3155 3157 3156 3156 3156 3155 3154 3153 3150 3149 3148 3146 3140 3136 3134 3131 3134 3131 3129 3127 3125 3122 3121 3120 3118
3117 3120 3123 3125 3128 3131 3133 3133 3136 3137 3138 3140 3141 3144 3146 3146 3146 3149 3150 3151 3150 3150 3149 3149 3147 3146 3143 3142 3140 3138 3135 3132 3129 3124 3122 3126 3123 3120 3117 3115 3115 3113 3111
3112 3115 3118 3122 3124 3127 3128 3130 3132 3133 3134 3134 3136 3138 3140 3140 3141 3143 3144 3144 3144 3143 3142 3142 3141 3139 3136 3133 3132 3130 3128 3125 3123 3120 3115 3114 3115 3114 3109 3108 3107 3107 3105